Simultaneous Nadir Overpasses (SNOs) Predictions

Prediction of SNOs between LANDSAT-8 and NOAA-19 Satellite Orbit:

Table of predicted SNOs for the next 14.0 days since TLE Epoch: 3/29/2014
Index Date (LANDSAT-8) Time (LANDSAT-8) Lat,Lon (LANDSAT-8) SZA (LANDSAT-8 ) Date (NOAA-19) Time (NOAA-19) Lat,Lon (NOAA-19) SZA (NOAA-19 ) Distance(km) Time Diff (sec)
1 03/30/2014 01:42:56 -71.76, -26.90 112.01 03/30/2014 01:42:16 -71.75, -26.90 112.01 0.64 40
2 03/30/2014 02:32:23 71.64, 140.55 67.87 03/30/2014 02:33:12 71.67, 140.52 67.89 2.98 49
3 04/01/2014 06:27:13 -71.78, -97.95 112.84 04/01/2014 06:26:14 -71.79, -97.94 112.82 1.83 59
4 04/01/2014 07:16:40 71.66, 69.50 67.04 04/01/2014 07:17:09 71.66, 69.57 67.03 2.30 29
5 04/03/2014 11:11:28 -71.98,-168.68 113.49 04/03/2014 11:10:16 -72.06,-169.42 113.40 26.41 72
6 04/03/2014 12:00:58 71.71, -1.51 66.23 04/03/2014 12:01:07 71.72, -1.50 66.24 1.01 9
7 04/05/2014 16:45:18 71.72, -72.57 65.41 04/05/2014 16:45:04 71.74, -72.51 65.43 2.89 14
8 04/05/2014 17:34:52 -71.42, 94.55 114.91 04/05/2014 17:36:03 -71.38, 95.38 114.96 29.81 71
9 04/07/2014 21:29:39 71.76,-143.61 64.62 04/07/2014 21:29:01 71.77,-143.53 64.63 2.72 38
10 04/07/2014 22:19:09 -71.67, 23.87 115.49 04/07/2014 22:20:05 -71.68, 23.87 115.48 0.95 56
11 04/10/2014 02:14:01 71.83, 145.40 63.86 04/10/2014 02:12:58 71.82, 145.41 63.86 0.84 63
12 04/10/2014 03:03:31 -71.74, -47.12 116.24 04/10/2014 03:04:02 -71.74, -47.21 116.24 3.10 31
